[Date Prev][Date Next][Thread Prev][Thread Next] - [Date Index][Thread Index][Author Index]
2 Line ISS Keps 10-16
- Subject: [sarex] 2 Line ISS Keps 10-16
- From: "Dave Larsen PhD" <doc@xxxxxxxxxxx>
- Date: Sat, 15 Oct 2005 19:29:48 -0700
ISS
1 25544U 98067A 05288.80763889 .00014659 00000-0 10428-3 0 5575
2 25544 051.6446 002.9583 0001731 096.9140 036.3429 15.74136027394667
----
Via the sarex mailing list at AMSAT.ORG courtesy of AMSAT-NA.
To unsubscribe, send "unsubscribe sarex" to Majordomo@amsat.org
AMSAT Home